User: anonymous   Login
Location: Oshawa
(43.9000°N, 78.8670°W)
Time: 08:52:09
(UTC-05:00)
Language:

Cosmos 2333 Rocket - Orbit

View from above orbital plane
View from above orbital plane
View from above satellite
View from above satellite

Ground track
Ground track

The orbit data is extracted from the following two-line orbital elements,

1 24298U 96051B   17053.85229267  .00000082  00000-0  70798-4 0  9998
2 24298  70.8491 303.0447 0015233 340.0854  19.9670 14.12480618 55675
Epoch (UTC): 22 February 2017 20:27:18
Eccentricity: 0.0015233
inclination: 70.8491°
perigee height: 840 km
apogee height: 862 km
right ascension of ascending node: 303.0447°
argument of perigee: 340.0854°
revolutions per day: 14.12480618
mean anomaly at epoch: 19.9670°
orbit number at epoch: 5567

The dashed part of the orbit path shows where the satellite is in the earth's shadow,  

DLR